Вернуться в каталог

STARLINK-30353

АктивенСвязьVLEO
NORAD 58113·PAYLOAD·🇺🇸 United States

Запущен Oct 21, 2023 с Vandenberg Space Force Base

Loading…

Ближайшие Пролёты (ближайшие 24 часа)

TLE

СвежийSource: CelesTrak SupGP

Эпоха: Sep 14, 2026, 22:08 UTC

1 58113C 23161S   26257.92270833 -.00004540  00000+0 -13417-3 0  2577
2 58113  53.1603   5.7119 0001191  75.1100  15.1322 15.34384369    18

Отслеживайте STARLINK-30353 в реальном времени с AllMySat

Download on the App Store